www.pogodaiklimat.ru

Погода и климат >> Архив погоды >> Мексика >> Jalapa


ПОГОДА в Jalapa

  • Прогноз погоды в Jalapa
  • Монитор погоды в Jalapa
  • Климат города

АРХИВ ПОГОДЫ в Jalapa

Время (UTC), дата Ветер
(напр.,м/с)
 
Видим.   Явления Облачность Т
(С)
Тd
(С)
f
(%)
Тe
(С)
Тes
(С)
Комфортность P
(гПа)
Po
(гПа)
Тmin
(С)
Tmax
(С)
R
(мм)
R24
(мм)
S
(см)
12 11.08 Ю 1 16 км зарница 4/4 600 м
[Cb cap]
+15.6 +14.7 94 +16 +16 1015.3 867.4 +15.6 +26.6
15 11.08 ЮЗ 1 20 км 6/4 660 м
[Sc Ac trans]
+19.1 +16.9 87 +22 +27 комфорт 1017.1 868.8
18 11.08 В 1 20 км 6/5 720 м
[Cu hum Cs]
+25.5 +16.7 58 +29 +41 душно 1015.6 868.4 +15.0 +26.0
21 11.08 В 1 16 км осадки на расстоянии 9/9 660 м
[Cb calv]
+26.0 +18.8 65 +31 +33 очень
душно
1012.8 867.2
00 12.08 В 1 10 км осадки на расстоянии 9/9 600 м
[Sc]
+21.8 +19.3 86 +27 +27 душно 1011.1 866.6 1
12 12.08 Ю 1 8000 м {дождь} 9/9 600 м
[Sc]
+18.0 +16.7 92 +19 +19 1013.9 867.3 0.4
15 12.08 Ю 1 16 км 10/10 840 м
[Sc]
+19.4 +17.3 88 +23 +23 комфорт 1017.1 869.8
18 12.08 В 1 18 км 10/8 840 м
[Sc As op]
+24.4 +14.2 53 +27 +28 жарко 1015.7 869.0 +16.4 +24.8
21 12.08 В 1 16 км 10/9 800 м
[Sc As trans]
+25.2 +15.2 54 +28 +29 жарко 1013.7 867.9
00 13.08 СВ 1 14 км 10/10 600 м
[Sc]
+21.8 +20.4 92 +28 +28 душно 1012.3 867.3 +16.4 +25.5
03 13.08 В 1 10 км 8/8 600 м
[Sc]
+19.8 +18.5 92 +24 +24 комфорт 1013.3 868.4
06 13.08 В 1 10 км 9/9 600 м
[Sc]
+19.0 +17.7 92 +22 +22 комфорт 1015.3 869.8 +16.4 +25.5
09 13.08 ЮВ 1 10 км 9/9 600 м
[Sc]
+18.4 +17.1 92 +20 +20 1015.9 869.6
12 13.08 Ю 1 10 км 5/5 660 м
[Sc diur, vesp]
+16.2 +14.9 92 +17 +17 1015.7 868.7 +14.6 +25.5
15 13.08 Ю 1 20 км 3/1 800 м
[Cu hum Ac trans]
+21.0 +15.8 72 +26 +34 душно 1016.5 869.1
18 13.08 В 1 18 км 8/8 720 м
[]
+25.4 +18.4 65 +30 +35 душно 1015.4 868.8 +14.6 +25.6
21 13.08 В 1
{2}
18 км 6/6 720 м
[Cb calv]
+27.8 +17.7 54 +32 +39 душно 1012.0 866.8
00 14.08 В 1 14 км слабый дождь 9/9 600 м
[Cb calv]
+21.8 +17.8 78 +26 +26 душно 1010.3 866.0 0.3
03 14.08 С 1 10 км слабый дождь {ливн. осадки} туман 10/10 720 м
[Cb calv]
+17.0 +16.4 96 +18 +18 1012.0 867.5 23
06 14.08 С 1 10 км {ливн. осадки} 9/9 600 м
[Sc diur, vesp]
+17.2 +16.6 96 +18 +18 1014.7 869.0 23
09 14.08 Ю 1 10 км 6/6 840 м
[Sc]
+16.0 +15.4 96 +17 +17 1014.0 867.2
12 14.08 Ю 1 14 км 3/3 840 м
[Sc diur, vesp]
+15.2 +14.6 96 +16 +16 1014.0 867.0 +15.0 +28.5
15 14.08 В 1 20 км 3/1 660 м
[Cu hum Cs]
+20.6 +17.2 81 +25 +35 комфорт 1015.7 867.7
21 14.08 СВ 1 16 км осадки на расстоянии 8/8 800 м
[Sc diur, vesp]
+25.6 +18.7 66 +31 +34 очень
душно
1011.8 866.2
00 15.08 В 1 14 км осадки на расстоянии 8/8 600 м
[Sc diur, vesp]
+23.0 +19.1 79 +29 +29 очень
душно
1009.9 865.5 +14.8 +26.5
03 15.08 С 1 6000 м туман на расстоянии {морось} 10/10 420 м
[Sc]
+19.2 +18.1 93 +22 +22 комфорт 1012.0 867.6 0.0
06 15.08 Ю 1 10 км в посл. час морось 6/6 600 м
[Sc]
+18.4 +17.5 94 +20 +20 1013.8 868.5 0.0
09 15.08 Ю 1 10 км 3/3 870 м
[Sc]
+16.6 +15.7 94 +17 +17 1013.0 866.9
12 15.08 Ю 1 12 км 8/8 870 м
[Sc]
+15.6 +14.7 94 +16 +16 1014.2 867.0 +15.4 +26.5
15 15.08 ЮВ 1 18 км 10/5 840 м
[Sc Ac lent]
+20.0 +15.6 76 +24 +25 комфорт 1016.4 868.6
18 15.08 З 1 16 км 9/9 800 м
[Cu Sc]
+24.2 +16.5 62 +28 +30 душно 1015.8 868.7 +15.4 +24.6
21 15.08 ЮЗ 1 16 км 9/9 800 м
[Cu Sc]
+23.6 +20.2 81 +29 +31 душно 1013.2 867.3
00 16.08 З 1 14 км слабый дождь 10/10 600 м
[Sc]
+19.8 +18.7 93 +24 +24 комфорт 1012.7 867.5 0.0
03 16.08 Ю 1 10 км {дождь} ясно +18.2 +17.0 93 +20 +20 1014.3 869.0 3
06 16.08 Ю 1 10 км {дождь} ясно +16.2 +15.9 98 +17 +17 1015.4 869.2 +15.4 +25.4 3
09 16.08 Ю 1 10 км ясно +15.2 +14.3 94 +16 +16 1014.9 867.7
12 16.08 Ю 1 14 км ясно +13.8 +11.2 84 +14 +14 1016.3 868.1 +13.8 +25.4
15 16.08 В 1 20 км 4/4 720 м
[Sc diur, vesp]
+20.0 +17.1 83 +24 +30 комфорт 1019.1 870.2
18 16.08 В 1
{1}
18 км 4/4 720 м
[Sc diur, vesp]
+26.4 +16.4 54 +30 +45 душно 1018.4 870.5 +13.1 +26.6
21 16.08 В 1
{3}
16 км 8/8 720 м
[Cb calv]
+24.7 +19.6 73 +30 +33 очень
душно
1016.1 869.6
00 17.08 Ю 1 16 км 6/6 600 м
[Cb calv]
+23.6 +19.2 76 +28 +29 душно 1014.1 869.1 +13.1 +27.2
03 17.08 В 1 6000 м 6/6 500 м
[Sc]
+20.0 +18.9 93 +24 +24 комфорт 1016.1 871.3 +13.1 +27.2
06 17.08 Ю 1 6000 м 4/4 300 м
[St]
+18.4 +17.5 94 +20 +20 1016.8 871.2 +13.1 +27.2
09 17.08 Ю 1 10 км ясно +15.8 +14.6 93 +16 +16 1015.6 869.3
12 17.08 Ю 1 16 км ясно +14.4 +13.2 92 +15 +15 1016.8 869.2 +14.4 +27.2
15 17.08 В 1 20 км 4/0
[Cs]
+22.2 +17.1 73 +27 +37 душно 1018.7 870.4
18 17.08 В 1 16 км 8/8 660 м
[Sc diur, vesp]
+24.6 +17.7 65 +29 +34 душно 1018.8 871.1 +14.0 +25.0
21 17.08 В 2 18 км 8/8 720 м
[Sc diur, vesp]
+27.4 +20.1 64 +34 +36 очень
душно
1015.5 869.4
00 18.08 В 1 12 км осадки на расстоянии 9/9 600 м
[Cb cap]
+22.6 +20.4 87 +29 +29 очень
душно
1013.4 868.7 +14.0 +28.0
03 18.08 В 1 10 км 8/8 600 м
[Sc]
+20.0 +18.6 92 +24 +24 комфорт 1014.6 870.1

 

Местоположение метеостанции Jalapa (Мексика): широта 19.55 долгота -96.91 высота над уровнем моря 1389 м.

В архиве по умолчанию представлена погода в Jalapa за последнюю неделю. Архивные данные за месяц целиком и за предыдущие месяцы, начиная с января 2011 года, Вы можете получить, выбрав интересующий диапазон дат из раскрывающегося списка и нажав кнопку "Ввод!".


*Определитесь, кто Вы:
робот инопланетянин человек

Внимание! Время в таблицах - всемирное. Для получения местного времени необходимо прибавить поправку, которая в Jalapa равна -6 ч.

Смотрите также архив погоды в соседних городах и на ближайших метеорологических станциях:

Погода в Cordoba-In-Veracruz (Мексика) (72 км)
Погода в Orizaba (Мексика) (80 км)
Погода в Verakruz (Мексика) (95 км)
Погода в Tlaxcala Airport (Мексика) (142 км)
Погода в Puebla (Мексика) (143 км)
Погода в Tlaxcala (Мексика) (143 км)
Погода в Tulancingo (Мексика) (164 км)
Погода в Tuxpan (Мексика) (164 км)
Погода в Pachuca (Мексика) (203 км)
Погода в Huajuapan De Leon (Мексика) (215 км)

Пояснения к столбцам:

Ветер - указаны скорость ветра в м/с - средняя за 10 мин, порывы в срок и между сроками (в фигурных скобках) и направление, откуда дует ветер: С - северный, СВ - северо-восточный, В - восточный, ЮВ - юго-восточный, Ю - южный, ЮЗ - юго-западный, З - западный, СЗ - северо-западный.
Видимость - горизонтальная дальность видимости в метрах или километрах. При видимости от 1 до 10 км при отсутствии осадков обычно наблюдается дымка, при ухудшении видимости до 1 км и менее - туман. В сухую погоду видимость может ухудшаться дымом, пылью или мглою.
Явления - указаны атмосферные явления, наблюдавшиеся в срок или в последний час перед сроком; фигурными скобками обозначены явления, наблюдавшиеся между сроками (за 1-3 часа до срока); квадратными скобками обозначены град или гололедные отложения с указанием их диаметра в мм.
Облачность - указаны через наклонную черту общая и нижняя облачность в баллах и высота нижней границы облаков в метрах; квадратными скобками обозначены формы облаков: Ci - перистые, Cs - перисто-слоистые, Cc - перисто-кучевые, Ac - высококучевые, As - высокослоистые, Sc - слоисто-кучевые, Ns - слоисто-дождевые, Cu - кучевые, Cb - кучево-дождевые. Подробнее классификацию облаков см. в Атласе облаков (PDF).
T - Температура воздуха - температура, измеренная на высоте 2 м над землей.
Td - Температура точки росы - температура, при понижении до которой содержащийся в воздухе водяной пар достигнет насыщения.
f - Относительная влажность воздуха - влажноcть воздуха, измеренная на высоте 2 м над землей.
Te - Эффективная температура - температура, которую ощущает одетый по сезону человек в тени. Характеристика душности погоды. При расчете учитывается влияние влажности воздуха и скорости ветра на теплоощущения человека.
Tes - Эффективная температура на солнце - температура, которую ощущает человек, с поправкой на солнечный нагрев. Характеристика знойности погоды. Зависит от высоты солнца над горизонтом, облачности и скорости ветра. Ночью, в пасмурную погоду, а также при ветре 12 м/с и более поправка равна нулю.
P - Атмосферное давление - приведенное к уровню моря атмосферное давление.
Po - Атмосферное давление - измеренное на уровне метеостанции атмосферное давление.
Tmin - Минимальная температура - минимум температуры воздуха на высоте 2 м над землей.
Tmax - Максимальная температура - максимум температуры воздуха на высоте 2 м над землей.
R - Количество осадков - Количество выпавших осадков за период времени, мм. При наведении курсора мыши на число - период времени, за который выпало указанное количество осадков.
R24 - Количество осадков - Количество выпавших осадков за 24 часа, мм.
S - Снежный покров - Высота снежного покрова, см. При наведении курсора мыши на число - состояние снежного покрова и степень покрытия местности в баллах.